Hourly Weather Klamry

Today, 27 July, Tuesday

Time Temperature Precipitation Wind Pressure Humidity
00:00 +20°C° 0.1 mm 2 mps 755 mmHg 92%
01:00 +21°C° 0.1 mm 1 mps 755 mmHg 92%
02:00 +21°C° 0 mm 1 mps 755 mmHg 92%
03:00 +20°C° 0 mm 1 mps 755 mmHg 91%
04:00 +20°C° 0 mm 1 mps 755 mmHg 91%
05:00 +21°C° 0.1 mm 1 mps 755 mmHg 88%
06:00 +21°C° 0.1 mm 2 mps 756 mmHg 84%
07:00 +23°C° 0.1 mm 2 mps 756 mmHg 81%
08:00 +24°C° 0.3 mm 3 mps 756 mmHg 76%
09:00 +26°C° 0.3 mm 3 mps 756 mmHg 70%
10:00 +27°C° 0.3 mm 3 mps 756 mmHg 65%
11:00 +28°C° 0.2 mm 4 mps 756 mmHg 59%
12:00 +29°C° 0.2 mm 4 mps 756 mmHg 53%
13:00 +30°C° 0.2 mm 4 mps 756 mmHg 47%
14:00 +30°C° 0 mm 3 mps 756 mmHg 49%
15:00 +29°C° 0 mm 3 mps 755 mmHg 51%
16:00 +29°C° 0 mm 2 mps 755 mmHg 53%
17:00 +28°C° 0 mm 2 mps 755 mmHg 56%
18:00 +27°C° 0 mm 2 mps 755 mmHg 58%
19:00 +26°C° 0 mm 2 mps 755 mmHg 61%
20:00 +25°C° 0 mm 2 mps 756 mmHg 63%
21:00 +24°C° 0 mm 1 mps 756 mmHg 65%
22:00 +24°C° 0 mm 1 mps 756 mmHg 67%
23:00 +23°C° 0 mm 1 mps 756 mmHg 68%

Tomorrow, 28 July, Wednesday

Time Temperature Precipitation Wind Pressure Humidity
00:00 +23°C° 0 mm 1 mps 756 mmHg 69%
01:00 +23°C° 0 mm 1 mps 756 mmHg 69%
02:00 +22°C° 0 mm 1 mps 756 mmHg 70%
03:00 +20°C° 0 mm 2 mps 756 mmHg 72%
04:00 +20°C° 0 mm 2 mps 756 mmHg 73%
05:00 +21°C° 0 mm 2 mps 756 mmHg 70%
06:00 +23°C° 0 mm 2 mps 756 mmHg 68%
07:00 +24°C° 0 mm 2 mps 756 mmHg 65%
08:00 +25°C° 0 mm 2 mps 756 mmHg 61%
09:00 +26°C° 0 mm 2 mps 756 mmHg 56%
10:00 +27°C° 0 mm 2 mps 756 mmHg 52%
11:00 +27°C° 0 mm 2 mps 756 mmHg 55%
12:00 +27°C° 0 mm 2 mps 756 mmHg 58%
13:00 +26°C° 0 mm 2 mps 756 mmHg 61%
14:00 +26°C° 0.1 mm 2 mps 756 mmHg 63%
15:00 +26°C° 0.1 mm 2 mps 756 mmHg 65%
16:00 +25°C° 0.1 mm 2 mps 756 mmHg 67%
17:00 +25°C° 0.5 mm 3 mps 756 mmHg 72%
18:00 +24°C° 0.5 mm 3 mps 755 mmHg 76%
19:00 +22°C° 0.5 mm 3 mps 755 mmHg 81%
20:00 +21°C° 0.1 mm 3 mps 756 mmHg 85%
21:00 +20°C° 0.1 mm 2 mps 756 mmHg 88%
22:00 +19°C° 0.1 mm 2 mps 756 mmHg 91%
23:00 +19°C° 0 mm 2 mps 756 mmHg 92%

Day after tomorrow, 29 July, Thursday

Time Temperature Precipitation Wind Pressure Humidity
00:00 +18°C° 0 mm 2 mps 756 mmHg 93%
01:00 +18°C° 0 mm 2 mps 756 mmHg 94%
02:00 +18°C° 0 mm 2 mps 756 mmHg 94%
03:00 +17°C° 0 mm 2 mps 756 mmHg 94%
04:00 +17°C° 0 mm 2 mps 756 mmHg 94%
05:00 +18°C° 0 mm 3 mps 756 mmHg 88%
06:00 +20°C° 0 mm 3 mps 756 mmHg 82%
07:00 +21°C° 0 mm 3 mps 756 mmHg 76%
08:00 +22°C° 0 mm 4 mps 756 mmHg 68%
09:00 +25°C° 0 mm 5 mps 756 mmHg 59%
10:00 +26°C° 0 mm 5 mps 756 mmHg 51%
11:00 +27°C° 0 mm 6 mps 755 mmHg 47%
12:00 +28°C° 0 mm 6 mps 755 mmHg 42%
13:00 +29°C° 0 mm 7 mps 755 mmHg 38%
14:00 +29°C° 0 mm 6 mps 755 mmHg 38%
15:00 +29°C° 0 mm 6 mps 754 mmHg 37%
16:00 +29°C° 0 mm 5 mps 754 mmHg 37%
17:00 +27°C° 0 mm 5 mps 754 mmHg 42%
18:00 +26°C° 0 mm 4 mps 754 mmHg 47%
19:00 +23°C° 0 mm 4 mps 754 mmHg 52%
20:00 +22°C° 0 mm 3 mps 754 mmHg 55%
21:00 +21°C° 0 mm 2 mps 755 mmHg 58%
22:00 +21°C° 0 mm 1 mps 755 mmHg 61%
23:00 +21°C° 0 mm 1 mps 754 mmHg 62%

30 July, Friday

Time Temperature Precipitation Wind Pressure Humidity
00:00 +21°C° 0 mm 1 mps 754 mmHg 62%
01:00 +19°C° 0 mm 2 mps 754 mmHg 63%
02:00 +19°C° 0 mm 2 mps 754 mmHg 64%
03:00 +19°C° 0 mm 2 mps 754 mmHg 66%
04:00 +18°C° 0 mm 2 mps 754 mmHg 68%
05:00 +19°C° 0 mm 2 mps 754 mmHg 66%
06:00 +20°C° 0 mm 3 mps 753 mmHg 64%
07:00 +21°C° 0 mm 3 mps 753 mmHg 62%
08:00 +22°C° 0 mm 4 mps 753 mmHg 55%
09:00 +23°C° 0 mm 5 mps 753 mmHg 49%
10:00 +26°C° 0 mm 5 mps 753 mmHg 42%
11:00 +26°C° 0 mm 6 mps 753 mmHg 40%
12:00 +26°C° 0 mm 6 mps 753 mmHg 38%
13:00 +27°C° 0 mm 6 mps 753 mmHg 36%
14:00 +27°C° 0 mm 6 mps 752 mmHg 36%
15:00 +27°C° 0 mm 6 mps 752 mmHg 36%
16:00 +27°C° 0 mm 6 mps 752 mmHg 36%
17:00 +25°C° 0 mm 5 mps 752 mmHg 42%
18:00 +23°C° 0 mm 5 mps 752 mmHg 48%
19:00 +21°C° 0 mm 4 mps 752 mmHg 55%
20:00 +20°C° 0 mm 4 mps 752 mmHg 59%
21:00 +19°C° 0 mm 3 mps 753 mmHg 63%
22:00 +18°C° 0 mm 3 mps 753 mmHg 67%
23:00 +17°C° 0 mm 3 mps 753 mmHg 70%

31 July, Saturday

Time Temperature Precipitation Wind Pressure Humidity
00:00 +17°C° 0 mm 3 mps 753 mmHg 73%
01:00 +16°C° 0 mm 3 mps 753 mmHg 77%
02:00 +15°C° 0 mm 4 mps 753 mmHg 78%
03:00 +15°C° 0 mm 4 mps 753 mmHg 80%
04:00 +15°C° 0 mm 4 mps 753 mmHg 82%
05:00 +17°C° 0 mm 4 mps 753 mmHg 78%
06:00 +17°C° 0 mm 5 mps 753 mmHg 74%
07:00 +19°C° 0 mm 5 mps 753 mmHg 70%
08:00 +20°C° 0 mm 6 mps 753 mmHg 63%
09:00 +22°C° 0 mm 6 mps 753 mmHg 56%
10:00 +23°C° 0 mm 7 mps 753 mmHg 48%
11:00 +24°C° 0 mm 6 mps 753 mmHg 46%
12:00 +26°C° 0 mm 6 mps 753 mmHg 43%
13:00 +27°C° 0 mm 6 mps 753 mmHg 40%
14:00 +27°C° 0 mm 6 mps 753 mmHg 39%
15:00 +27°C° 0 mm 6 mps 753 mmHg 38%
16:00 +28°C° 0 mm 6 mps 752 mmHg 37%
17:00 +26°C° 0 mm 5 mps 753 mmHg 42%
18:00 +25°C° 0 mm 4 mps 753 mmHg 46%
19:00 +22°C° 0 mm 3 mps 753 mmHg 51%
20:00 +21°C° 0 mm 3 mps 753 mmHg 56%
21:00 +19°C° 0 mm 2 mps 753 mmHg 60%
22:00 +18°C° 0 mm 2 mps 753 mmHg 65%
23:00 +18°C° 0 mm 2 mps 753 mmHg 67%

1 August, Sunday

Time Temperature Precipitation Wind Pressure Humidity
00:00 +17°C° 0 mm 2 mps 753 mmHg 69%
01:00 +17°C° 0 mm 2 mps 753 mmHg 71%
02:00 +16°C° 0 mm 1 mps 753 mmHg 72%
03:00 +16°C° 0 mm 1 mps 753 mmHg 73%
04:00 +16°C° 0 mm 1 mps 753 mmHg 74%
05:00 +18°C° 0 mm 1 mps 753 mmHg 70%
06:00 +19°C° 0 mm 1 mps 753 mmHg 66%
07:00 +21°C° 0 mm 1 mps 753 mmHg 62%
08:00 +22°C° 0 mm 1 mps 753 mmHg 58%
09:00 +24°C° 0 mm 1 mps 752 mmHg 53%
10:00 +25°C° 0 mm 1 mps 752 mmHg 48%
11:00 +24°C° 1 mm 1 mps 752 mmHg 58%
12:00 +22°C° 1 mm 1 mps 752 mmHg 67%
13:00 +21°C° 1 mm 1 mps 752 mmHg 77%
14:00 +19°C° 1.4 mm 2 mps 751 mmHg 82%
15:00 +18°C° 1.4 mm 3 mps 751 mmHg 86%
16:00 +17°C° 1.4 mm 3 mps 751 mmHg 91%
17:00 +17°C° 0.4 mm 3 mps 751 mmHg 91%
18:00 +17°C° 0.4 mm 3 mps 751 mmHg 92%
19:00 +16°C° 0.4 mm 3 mps 751 mmHg 93%
20:00 +16°C° 0.1 mm 3 mps 751 mmHg 94%
21:00 +16°C° 0.1 mm 3 mps 751 mmHg 94%
22:00 +16°C° 0.1 mm 2 mps 751 mmHg 94%
23:00 +16°C° 0.1 mm 2 mps 751 mmHg 94%
Show more